Mullan Pass, ID

1:45 PM PDT on October 20, 2017 (GMT -0700)
Mullan Pass

Weather History for KMLP - January, 2014

Change the Weather History Date:

Tuesday, January 14, 2014

  Actual Average (K3TH) Record (K3TH)
Temperature  
Mean Temperature 30 °F -  
Max Temperature 32 °F 32 °F 39 °F (1999)
Min Temperature 28 °F 24 °F 0 °F (1997)
Degree Days  
Heating Degree Days 35    
Moisture  
Dew Point 27 °F    
Average Humidity 86    
Maximum Humidity 93    
Minimum Humidity 80    
Precipitation  
Precipitation 0.00 in - - ()
Sea Level Pressure  
Sea Level Pressure 30.43 in    
Wind  
Wind Speed 5 mph (WSW)    
Max Wind Speed 10 mph    
Max Gust Speed 20 mph    
Visibility 3 miles    
Events Fog , Rain , Snow    
Averages and records for this station are not official NWS values.
T = Trace of Precipitation, MM = Missing Value Source: NWS Daily Summary

Daily Weather History Graph

Daily Weather History Graph

Search for Another Location

Airport or City:

Trip Planner

Search our weather history database for the weather conditions in past years. The results will help you decide how hot, cold, wet, or windy it might be!

Date:

Astronomy

Jan. 14, 2014 Rise Set
Actual Time 7:26 AM PST 4:17 PM PST
Civil Twilight 6:51 AM PST 4:52 PM PST
Nautical Twilight 6:13 AM PST 5:30 PM PST
Astronomical Twilight 5:36 AM PST 6:07 PM PST
Moon 3:29 PM PST (1/14) 6:01 AM PST (1/14)
Length of Visible Light 10h 01m
Length of Day
8h 51m
Waxing Gibbous, 98% of the Moon is Illuminated
Jan 14
Waxing Gibbous
Jan 15
Full
Jan 23
Last Quarter
Jan 30
New
Feb 6
First Quarter

Hourly Weather History & Observations

Time (PST) Temp. Windchill Dew Point Humidity Pressure Visibility Wind Dir Wind Speed Gust Speed Precip Events Conditions
12:53 AM 30.9 °F 25.2 °F 27.0 °F 85% 30.35 in 0.2 mi Variable 5.8 mph - N/A Fog Light Freezing Fog
1:53 AM 30.9 °F 25.2 °F 27.0 °F 85% 30.37 in 0.2 mi Variable 5.8 mph - 0.00 in Fog Light Freezing Fog
2:32 AM 30.2 °F 24.3 °F 26.6 °F 86% 30.44 in 0.2 mi Variable 5.8 mph - N/A Fog Light Freezing Fog
2:40 AM 30.2 °F 26.7 °F 26.6 °F 86% 30.44 in 0.2 mi Variable 3.5 mph - N/A Fog Light Freezing Fog
2:51 AM 30.2 °F 24.3 °F 26.6 °F 86% 30.44 in 0.2 mi Variable 5.8 mph - N/A Fog Light Freezing Fog
2:53 AM 30.9 °F 26.2 °F 27.0 °F 85% 30.39 in 0.2 mi Variable 4.6 mph - N/A Fog Light Freezing Fog
3:00 AM 30.2 °F - 26.6 °F 86% 30.44 in 0.5 mi Calm Calm - N/A Fog Light Freezing Fog
3:22 AM 30.2 °F 26.7 °F 26.6 °F 86% 30.44 in 0.2 mi Variable 3.5 mph - N/A Fog Light Freezing Fog
3:35 AM 30.2 °F 25.4 °F 26.6 °F 86% 30.44 in 0.2 mi Variable 4.6 mph - N/A Fog Light Freezing Fog
3:53 AM 30.9 °F 25.2 °F 27.0 °F 85% 30.39 in 0.5 mi West 5.8 mph - N/A Fog Light Freezing Fog
4:12 AM 30.2 °F 24.3 °F 26.6 °F 86% 30.45 in 1.5 mi Variable 5.8 mph - N/A   Overcast
4:26 AM 30.2 °F 25.4 °F 26.6 °F 86% 30.45 in 0.8 mi Variable 4.6 mph - N/A   Mist
4:53 AM 30.9 °F 27.5 °F 27.0 °F 85% 30.41 in 0.5 mi Variable 3.5 mph - N/A Fog Light Freezing Fog
5:18 AM 30.2 °F 24.3 °F 26.6 °F 86% 30.46 in 0.2 mi Variable 5.8 mph - N/A Fog Light Freezing Fog
5:53 AM 30.9 °F 26.2 °F 27.0 °F 85% 30.42 in 0.2 mi Variable 4.6 mph - N/A Fog Light Freezing Fog
6:22 AM 30.2 °F 26.7 °F 26.6 °F 86% 30.46 in 0.5 mi Variable 3.5 mph - N/A Fog Light Freezing Fog
6:38 AM 30.2 °F 25.4 °F 26.6 °F 86% 30.47 in 0.2 mi Variable 4.6 mph - N/A Fog Light Freezing Fog
6:53 AM 30.9 °F 25.2 °F 27.0 °F 85% 30.43 in 0.2 mi Variable 5.8 mph - N/A Fog Light Freezing Fog
7:53 AM 30.9 °F 27.5 °F 27.0 °F 85% 30.45 in 0.2 mi WSW 3.5 mph - N/A Fog Light Freezing Fog
8:53 AM 30.9 °F 24.3 °F 27.0 °F 85% 30.45 in 0.2 mi Variable 6.9 mph - N/A Fog Light Freezing Fog
9:06 AM 30.2 °F 22.6 °F 26.6 °F 86% 30.50 in 0.2 mi West 8.1 mph - N/A Fog Light Freezing Fog
9:53 AM 30.9 °F 24.3 °F 27.0 °F 85% 30.46 in 0.2 mi Variable 6.9 mph - 0.00 in Fog Light Freezing Fog
10:02 AM 30.2 °F 25.4 °F 28.4 °F 93% 30.51 in 0.2 mi Variable 4.6 mph - N/A Fog Light Freezing Fog
10:16 AM 32.0 °F 26.4 °F 26.6 °F 80% 30.51 in 0.2 mi Variable 5.8 mph - 0.00 in Rain Light Freezing Rain
10:53 AM 32.0 °F 28.7 °F 28.0 °F 85% 30.45 in 0.2 mi WSW 3.5 mph - 0.00 in Fog , Snow Light Snow
11:12 AM 32.0 °F 25.6 °F 28.4 °F 87% 30.49 in 0.2 mi WSW 6.9 mph - 0.00 in Fog Fog
11:53 AM 32.0 °F 27.5 °F 28.0 °F 85% 30.43 in 0.2 mi SW 4.6 mph - 0.00 in Fog Fog
12:53 PM 32.0 °F 25.6 °F 28.0 °F 85% 30.42 in 0.2 mi WSW 6.9 mph - N/A Fog Fog
1:53 PM 32.0 °F 27.5 °F 28.0 °F 85% 30.41 in 0.2 mi Variable 4.6 mph - N/A Fog Fog
2:53 PM 32.0 °F 27.5 °F 28.0 °F 85% 30.41 in 0.2 mi Variable 4.6 mph - N/A Fog Fog
3:39 PM 32.0 °F 25.6 °F 26.6 °F 80% 30.46 in 0.5 mi SW 6.9 mph - N/A   Haze
3:48 PM 32.0 °F 27.5 °F 28.4 °F 87% 30.47 in 1.5 mi Variable 4.6 mph - N/A   Overcast
3:50 PM 32.0 °F 26.4 °F 28.4 °F 87% 30.47 in 3.0 mi SW 5.8 mph - N/A   Overcast
3:53 PM 32.0 °F 26.4 °F 28.0 °F 85% 30.41 in 6.0 mi Variable 5.8 mph - N/A   Overcast
4:08 PM 32.0 °F 27.5 °F 28.4 °F 87% 30.48 in 1.2 mi Variable 4.6 mph - N/A   Overcast
4:17 PM 32.0 °F 28.7 °F 28.4 °F 87% 30.48 in 0.5 mi Variable 3.5 mph - N/A Fog Fog
4:24 PM 32.0 °F 28.7 °F 28.4 °F 87% 30.47 in 1.5 mi Variable 3.5 mph - N/A   Overcast
4:31 PM 30.2 °F 21.9 °F 26.6 °F 86% 30.46 in 3.0 mi SW 9.2 mph - N/A   Overcast
4:53 PM 30.9 °F 22.2 °F 27.0 °F 85% 30.41 in 10.0 mi WSW 10.4 mph - N/A   Overcast
5:41 PM 30.2 °F 24.3 °F 26.6 °F 86% 30.45 in 10.0 mi Variable 5.8 mph - N/A   Overcast
5:53 PM 30.0 °F 23.2 °F 27.0 °F 88% 30.39 in 10.0 mi Variable 6.9 mph - N/A   Mostly Cloudy
6:03 PM 30.2 °F 23.4 °F 26.6 °F 86% 30.43 in 10.0 mi WSW 6.9 mph - N/A   Scattered Clouds
6:45 PM 28.4 °F 23.3 °F 26.6 °F 93% 30.44 in 2.5 mi Variable 4.6 mph - N/A   Mostly Cloudy
6:53 PM 28.9 °F 21.9 °F 26.1 °F 89% 30.39 in 4.0 mi WNW 6.9 mph - N/A   Mostly Cloudy
7:11 PM 30.2 °F 25.4 °F 26.6 °F 86% 30.43 in 10.0 mi Variable 4.6 mph - N/A   Overcast
7:53 PM 28.9 °F 23.9 °F 25.0 °F 85% 30.37 in 10.0 mi WSW 4.6 mph - N/A   Scattered Clouds
8:08 PM 28.4 °F 23.3 °F 24.8 °F 86% 30.42 in 10.0 mi WNW 4.6 mph - N/A   Partly Cloudy
8:53 PM 28.0 °F 21.7 °F 25.0 °F 88% 30.37 in 10.0 mi West 5.8 mph - N/A   Clear
9:16 PM 28.4 °F 23.3 °F 24.8 °F 86% 30.40 in 10.0 mi Variable 4.6 mph - N/A   Partly Cloudy
9:53 PM 28.0 °F 22.8 °F 25.0 °F 88% 30.35 in 10.0 mi Variable 4.6 mph - N/A   Clear
10:53 PM 28.0 °F 19.3 °F 24.1 °F 85% 30.32 in 10.0 mi WSW 9.2 mph - N/A   Clear
11:53 PM 28.0 °F 18.6 °F 24.1 °F 85% 30.33 in 10.0 mi WSW 10.4 mph 19.6 mph N/A   Clear